1536519600.53,31194,19.13,74514.8,0.01,-22.83,-22.93,0,*73
1536519601.73,31195,19.13,74514.8,0.01,-22.93,-22.97,0,*77
1536519602.91,31196,19.13,74516.0,0.01,-22.83,-22.97,0,*75
1536519604.1,31197,19.13,74516.0,0.01,-22.67,-22.93,0,*7A
1536519605.31,31198,19.13,74512.5,0.01,-22.87,-23.03,0,*73
1536519606.5,31199,19.13,74516.3,0.01,-22.83,-22.93,0,*7E
1536519607.72,31200,19.13,74514.5,0.01,-22.77,-22.83,0,*77
1536519608.94,31201,19.13,74518.0,0.01,-22.77,-22.93,0,*77
1536519610.13,31202,19.13,74518.5,0.01,-22.93,-22.97,0,*7A
1536519611.35,31203,19.13,74514.5,0.01,-22.77,-22.97,0,*71
1536519612.54,31204,19.13,74516.3,0.01,-22.93,-23.09,0,*7A
1536519613.73,31205,19.13,74514.5,0.01,-22.83,-23.09,0,*7A
1536519614.92,31206,19.13,74516.8,0.01,-22.93,-23.13,0,*73
1536519616.11,31207,19.13,74518.5,0.01,-22.93,-23.09,0,*79
1536519617.33,31208,19.13,74512.5,0.01,-22.77,-22.97,0,*7A
1536519618.52,31209,19.13,74512.8,0.01,-22.67,-22.93,0,*7E
1536519619.71,31210,19.13,74516.8,0.01,-22.67,-22.83,0,*77
1536519620.92,31211,19.13,74512.5,0.01,-22.53,-22.77,0,*7A
1536519622.17,31212,19.13,74516.0,0.01,-22.31,-22.47,0,*7E
1536519623.36,31213,19.13,74518.0,0.01,-22.53,-22.67,0,*79
1536519624.58,31214,19.13,74516.8,0.01,-22.53,-22.77,0,*7F
1536519625.8,31215,19.13,74514.8,0.01,-22.77,-23.09,0,*70
1536519626.98,31216,19.13,74512.0,0.01,-22.97,-23.13,0,*76
1536519628.19,31217,19.13,74512.3,0.05,-22.63,-22.77,0,*7B
1536519629.39,31218,19.13,74516.3,0.01,-22.53,-22.67,0,*72
1536519630.63,31219,19.13,74518.0,0.05,-22.47,-22.47,0,*70
1536519631.81,31220,19.13,74516.3,0.01,-22.63,-22.83,0,*70
1536519633.03,31221,19.13,74516.3,0.01,-22.53,-22.77,0,*79
1536519634.25,31222,19.13,74514.3,0.01,-22.77,-22.83,0,*77
1536519635.49,31223,19.13,74512.5,0.05,-22.31,-22.47,0,*78
1536519636.7,31224,19.13,74514.8,0.01,-22.67,-22.77,0,*7B
1536519637.89,31225,19.13,74516.8,0.01,-22.67,-22.93,0,*70
1536519639.1,31226,19.13,74518.0,0.01,-22.63,-22.77,0,*7D
1536519640.31,31227,19.13,74514.0,0.05,-22.57,-22.73,0,*7B
1536519641.5,31228,19.13,74514.8,0.01,-22.83,-23.09,0,*75
1536519642.72,31229,19.13,74514.3,0.05,-22.77,-22.93,0,*79
1536519643.91,31230,19.13,74514.8,0.01,-22.67,-22.83,0,*75
1536519645.12,31231,19.13,74514.3,0.01,-22.67,-22.77,0,*7F
1536519646.31,31232,19.13,74514.5,0.01,-22.67,-22.93,0,*76
1536519647.5,31233,19.13,74518.0,0.01,-22.97,-23.09,0,*7A
1536519648.69,31234,19.13,74518.3,0.01,-22.83,-22.97,0,*7E
1536519649.91,31235,19.13,74518.5,0.01,-22.77,-22.93,0,*70
1536519651.09,31236,19.13,74514.8,0.01,-22.67,-22.83,0,*73
1536519652.28,31237,19.13,74516.3,0.01,-22.53,-22.67,0,*7F
1536519653.5,31238,19.13,74518.8,0.05,-22.41,-22.47,0,*75
1536519654.71,31239,19.13,74512.3,0.05,-22.47,-22.57,0,*73
1536519655.93,31240,19.13,74518.8,0.01,-22.47,-22.63,0,*7E
1536519657.15,31241,19.13,74518.8,0.05,-22.27,-22.47,0,*7B
1536519658.39,31242,19.13,74518.5,0.05,-22.47,-22.73,0,*79
1536519659.58,31243,19.13,74516.5,0.01,-22.53,-22.67,0,*7C
1536519660.77,31244,19.13,74516.8,0.05,-22.57,-22.63,0,*7F
1536519662.01,31245,19.13,74516.0,0.05,-22.73,-22.77,0,*7D
1536519663.22,31246,19.13,74516.3,0.05,-22.47,-22.63,0,*7C
1536519664.43,31247,19.13,74514.5,0.05,-22.63,-22.77,0,*7E
1536519665.65,31248,19.13,74512.5,0.05,-22.57,-22.73,0,*72
1536519666.83,31249,19.13,74516.5,0.05,-22.63,-22.87,0,*7F
1536519668.04,31250,19.13,74518.8,0.05,-22.63,-22.77,0,*78
1536519669.23,31251,19.13,74514.0,0.01,-22.53,-22.63,0,*7B
1536519670.45,31252,19.13,74516.3,0.01,-22.47,-22.53,0,*7E
1536519671.69,31253,19.13,74516.8,0.01,-22.31,-22.47,0,*7B
1536519672.9,31254,19.13,74514.5,0.07,-22.27,-22.41,0,*7B
1536519674.12,31255,19.13,74514.8,0.07,-22.53,-22.67,0,*7D
1536519675.36,31256,19.13,74518.0,0.07,-22.57,-22.73,0,*7F
1536519676.58,31257,19.13,74518.0,0.07,-22.83,-22.97,0,*7D
1536519677.8,31258,19.13,74516.5,0.07,-22.83,-22.97,0,*72
1536519679.02,31259,19.13,74518.8,0.07,-22.83,-22.97,0,*73
1536519680.24,31260,19.13,74516.5,0.07,-22.57,-22.83,0,*75
1536519681.48,31261,19.13,74514.5,0.07,-22.73,-22.83,0,*72
1536519682.74,31262,19.13,74512.5,0.07,-22.73,-23.03,0,*78
1536519683.99,31263,19.13,74516.8,0.05,-22.77,-23.03,0,*7F
1536519685.17,31264,19.13,74518.8,0.05,-22.87,-22.93,0,*7F
1536519686.39,31265,19.13,74516.3,0.07,-22.67,-22.83,0,*73
1536519687.62,31266,19.13,74514.5,0.07,-22.73,-22.87,0,*71
1536519688.84,31267,19.13,74512.0,0.05,-22.77,-22.93,0,*73
1536519690.04,31268,19.13,74516.0,0.01,-22.93,-23.09,0,*70
1536519691.23,31269,19.13,74514.8,0.01,-22.97,-23.09,0,*75
1536519692.42,31270,19.13,74516.5,0.01,-22.93,-22.97,0,*7F
1536519693.61,31271,19.13,74514.8,0.05,-22.87,-22.93,0,*7B
1536519694.79,31272,19.13,74516.8,0.05,-22.63,-22.87,0,*77
1536519696.0,31273,19.13,74518.8,0.05,-22.73,-22.87,0,*77
1536519697.21,31274,19.13,74518.0,0.05,-22.73,-22.87,0,*70
1536519698.42,31275,19.13,74514.3,0.01,-22.67,-22.77,0,*7F
1536519699.64,31276,19.13,74518.0,0.05,-22.41,-22.47,0,*7F
1536519700.85,31277,19.13,74516.3,0.05,-22.41,-22.47,0,*7E
1536519702.09,31278,19.13,74514.8,0.05,-22.73,-22.77,0,*73
1536519703.28,31279,19.13,74518.3,0.01,-22.53,-22.67,0,*75
1536519704.47,31280,19.13,74516.0,0.05,-22.57,-22.63,0,*77
1536519705.71,31281,19.13,74516.8,0.05,-22.31,-22.47,0,*70
1536519706.9,31282,19.13,74514.8,0.05,-22.27,-22.57,0,*75
1536519708.12,31283,19.13,74518.0,0.05,-22.77,-22.87,0,*7C
1536519709.33,31284,19.13,74516.3,0.05,-22.73,-22.87,0,*7F
1536519710.51,31285,19.13,74514.5,0.05,-22.87,-22.93,0,*70
1536519711.73,31286,19.13,74518.0,0.05,-22.77,-22.87,0,*79
1536519712.94,31287,19.13,74516.5,0.05,-22.73,-22.87,0,*7C
1536519714.18,31288,19.13,74514.8,0.01,-22.77,-22.77,0,*7C
1536519715.41,31289,19.13,74514.8,0.05,-22.73,-22.77,0,*7D
1536519716.63,31290,19.13,74516.5,0.05,-22.47,-22.63,0,*77
1536519717.84,31291,19.13,74518.3,0.01,-22.73,-22.87,0,*7F
1536519719.05,31292,19.13,74516.0,0.05,-22.73,-22.93,0,*7D
1536519720.24,31293,19.13,74512.5,0.05,-22.87,-22.93,0,*77
1536519721.45,31294,19.13,74514.5,0.05,-22.73,-22.87,0,*7E
1536519722.66,31295,19.13,74516.5,0.05,-22.41,-22.47,0,*72
1536519723.85,31296,19.13,74514.3,0.05,-22.41,-22.57,0,*70
1536519725.04,31297,19.13,74516.5,0.05,-22.57,-22.63,0,*71
1536519726.26,31298,19.13,74518.3,0.05,-22.47,-22.63,0,*7F
1536519727.45,31299,19.13,74514.8,0.05,-22.41,-22.57,0,*7F
1536519728.64,31300,19.13,74514.3,0.05,-22.57,-22.57,0,*79
1536519729.83,31301,19.13,74516.5,0.01,-22.37,-22.53,0,*7E
1536519731.01,31302,19.13,74518.0,0.05,-22.27,-22.41,0,*7B
1536519732.25,31303,19.13,74518.3,0.05,-22.31,-22.47,0,*7B
1536519733.43,31304,19.13,74512.5,0.09,-22.27,-22.41,0,*71
1536519734.65,31305,19.13,74512.3,0.07,-22.37,-22.53,0,*7C
1536519735.89,31306,19.13,74514.3,0.07,-22.53,-22.73,0,*7F
1536519737.13,31307,19.13,74512.3,0.07,-22.73,-22.83,0,*73
1536519738.32,31308,19.13,74514.8,0.09,-22.53,-22.57,0,*79
1536519739.53,31309,19.13,74516.0,0.07,-22.67,-22.83,0,*78
1536519740.75,31310,19.13,74516.3,0.07,-22.41,-22.53,0,*79
1536519741.97,31311,19.13,74514.3,0.07,-22.57,-22.57,0,*7B
1536519743.16,31312,19.13,74514.8,0.09,-22.57,-22.83,0,*7F
1536519744.38,31313,19.13,74514.8,0.07,-22.57,-22.67,0,*7A
1536519745.6,31314,19.13,74514.3,0.07,-22.67,-22.67,0,*7E
1536519746.81,31315,19.13,74514.0,0.07,-22.67,-22.83,0,*75
1536519748.03,31316,19.13,74514.8,0.07,-22.97,-22.97,0,*7C
1536519749.22,31317,19.13,74512.5,0.09,-22.97,-22.87,0,*72
1536519750.44,31318,19.13,74516.0,0.07,-22.83,-22.87,0,*76
1536519751.65,31319,19.13,74512.3,0.07,-22.83,-22.87,0,*77
1536519752.9,31320,19.13,74516.8,0.07,-22.97,-23.19,0,*7E
1536519754.09,31321,19.13,74512.5,0.05,-22.93,-22.93,0,*7A
1536519755.27,31322,19.13,74512.5,0.05,-22.87,-22.87,0,*79
1536519756.49,31323,19.13,74512.0,0.07,-22.83,-22.97,0,*7F
1536519757.73,31324,19.13,74512.0,0.05,-22.77,-22.77,0,*7F
1536519758.97,31325,19.13,74512.8,0.07,-22.73,-22.87,0,*77
1536519760.19,31326,19.13,74512.5,0.07,-22.83,-22.97,0,*7A
1536519761.38,31327,19.13,74512.8,0.01,-22.97,-23.13,0,*75
1536519762.6,31328,19.13,74514.3,0.01,-23.09,-23.19,0,*76
1536519763.81,31329,19.13,74512.3,0.07,-22.83,-22.87,0,*74
1536519765.0,31330,19.13,74512.3,0.05,-22.83,-22.93,0,*7B
1536519766.21,31331,19.13,74514.3,0.05,-22.87,-23.03,0,*76
1536519767.43,31332,19.13,74512.5,0.01,-22.93,-23.03,0,*74
1536519768.62,31333,19.13,74514.3,0.01,-23.09,-23.09,0,*7D
1536519769.84,31334,19.13,74512.5,0.05,-23.03,-23.09,0,*74
1536519771.03,31335,19.13,74514.8,0.01,-22.97,-23.09,0,*7D
1536519772.23,31336,19.13,74516.0,0.01,-22.93,-22.97,0,*7C
1536519773.44,31337,19.13,74512.3,0.01,-22.77,-22.83,0,*72
1536519774.63,31338,19.13,74514.0,0.01,-22.83,-22.93,0,*77
1536519775.87,31339,19.13,74512.3,0.05,-23.03,-23.03,0,*73
1536519777.06,31340,19.13,74510.3,0.01,-22.97,-23.09,0,*7F
1536519778.28,31341,19.13,74516.3,0.05,-22.77,-22.93,0,*76
1536519779.48,31342,19.13,74510.8,0.01,-22.53,-22.63,0,*78
1536519780.72,31343,19.13,74516.3,0.05,-22.31,-22.47,0,*7F
1536519781.9,31344,19.13,74516.8,0.05,-22.41,-22.57,0,*7E
1536519783.12,31345,19.13,74512.8,0.05,-22.77,-22.87,0,*77
1536519784.3,31346,19.13,74512.3,0.01,-22.67,-22.67,0,*7F
1536519785.49,31347,19.13,74514.3,0.05,-22.41,-22.57,0,*7D
1536519786.68,31348,19.13,74514.3,0.01,-22.83,-23.09,0,*72
1536519787.89,31349,19.13,74512.3,0.05,-22.57,-22.73,0,*72
1536519789.1,31350,19.13,74514.3,0.05,-22.63,-22.77,0,*79
1536519790.34,31351,19.13,74514.0,0.05,-22.31,-22.47,0,*7C
1536519791.55,31352,19.13,74512.5,0.05,-22.73,-22.87,0,*75
1536519792.8,31353,19.13,74508.5,0.05,-22.31,-22.47,0,*7E
1536519794.01,31354,19.13,74514.5,0.05,-22.31,-22.57,0,*78
1536519795.25,31355,19.13,74512.0,0.05,-22.31,-22.47,0,*78
1536519796.46,31356,19.13,74510.0,0.05,-22.27,-22.31,0,*7D
1536519797.7,31357,19.13,74512.5,0.05,-22.73,-22.77,0,*7F
1536519798.91,31358,19.13,74512.5,0.05,-22.63,-22.77,0,*71
1536519800.1,31359,19.13,74512.3,0.05,-22.87,-22.93,0,*70
1536519801.31,31360,19.13,74516.0,0.07,-22.41,-22.57,0,*7A
1536519802.53,31361,19.13,74516.5,0.07,-22.37,-22.53,0,*7E
1536519803.77,31362,19.13,74514.8,0.07,-22.57,-22.73,0,*79
1536519804.99,31363,19.13,74516.5,0.05,-22.77,-22.87,0,*73
1536519806.19,31364,19.13,74518.5,0.05,-22.63,-22.73,0,*7A
1536519807.41,31365,19.13,74514.3,0.05,-22.47,-22.57,0,*7B
1536519808.63,31366,19.13,74518.0,0.07,-22.53,-22.53,0,*7B
1536519809.85,31367,19.13,74514.3,0.05,-22.77,-22.93,0,*72
1536519811.06,31368,19.13,74512.5,0.05,-22.73,-22.87,0,*7C
1536519812.25,31369,19.13,74514.3,0.05,-22.87,-22.93,0,*73
1536519813.46,31370,19.13,74512.8,0.07,-22.83,-22.97,0,*79
1536519814.68,31371,19.13,74514.8,0.05,-22.77,-22.93,0,*75
1536519815.92,31372,19.13,74514.3,0.07,-22.67,-22.73,0,*7B
1536519817.11,31373,19.13,74514.5,0.05,-22.53,-22.57,0,*79
1536519818.3,31374,19.13,74512.5,0.05,-22.97,-23.09,0,*7C
1536519819.52,31375,19.13,74514.8,0.05,-23.03,-23.13,0,*7A
1536519820.71,31376,19.13,74514.3,0.01,-22.97,-23.13,0,*71
1536519821.92,31377,19.13,74512.3,0.05,-22.87,-22.77,0,*76
1536519823.13,31378,19.13,74512.3,0.05,-22.87,-23.03,0,*7B
1536519824.34,31379,19.13,74516.5,0.01,-23.09,-23.19,0,*72
1536519825.59,31380,19.13,74516.3,0.05,-23.03,-23.23,0,*73
1536519826.78,31381,19.13,74514.0,0.05,-23.09,-23.13,0,*7B
1536519827.97,31382,19.13,74516.8,0.05,-22.93,-23.09,0,*71
1536519829.19,31383,19.13,74514.3,0.05,-22.93,-23.03,0,*7A
1536519830.38,31384,19.13,74516.8,0.01,-23.09,-23.13,0,*7A
1536519831.56,31385,19.13,74514.3,0.01,-22.67,-22.83,0,*7A
1536519832.78,31386,19.13,74516.5,0.01,-22.77,-22.93,0,*79
1536519833.98,31387,19.13,74516.0,0.01,-23.09,-23.09,0,*72
1536519835.17,31388,19.13,74514.3,0.01,-22.83,-22.97,0,*78
1536519836.36,31389,19.13,74518.3,0.01,-22.37,-22.53,0,*7E
1536519837.6,31390,19.13,74516.5,0.05,-22.31,-22.47,0,*71
1536519838.78,31391,19.13,74512.5,0.05,-22.41,-22.57,0,*76
1536519839.97,31392,19.13,74514.3,0.05,-22.41,-22.57,0,*75
1536519841.18,31393,19.13,74514.3,0.01,-22.63,-22.77,0,*72
1536519842.39,31394,19.13,74508.3,0.01,-22.77,-22.83,0,*7B
1536519843.61,31395,19.13,74514.0,0.01,-22.77,-22.83,0,*7A
1536519844.79,31396,19.13,74510.8,0.01,-22.87,-22.87,0,*72
1536519846.01,31397,19.13,74512.5,0.05,-22.47,-22.57,0,*76
1536519847.22,31398,19.13,74512.0,0.01,-22.47,-22.67,0,*7E
1536519848.43,31399,19.13,74514.3,0.05,-22.57,-22.73,0,*7F
1536519849.65,31400,19.13,74512.0,0.05,-22.57,-22.73,0,*78
1536519850.86,31401,19.13,74512.8,0.05,-22.73,-22.87,0,*74
1536519852.05,31402,19.13,74514.0,0.01,-22.97,-22.97,0,*78
1536519853.27,31403,19.13,74512.8,0.05,-22.77,-22.93,0,*77
1536519854.48,31404,19.13,74518.3,0.05,-22.73,-22.87,0,*71
1536519855.67,31405,19.13,74510.8,0.01,-22.53,-22.53,0,*7F
1536519856.89,31406,19.13,74514.0,0.01,-22.47,-22.57,0,*7D
1536519858.08,31407,19.13,74512.8,0.05,-22.57,-22.63,0,*7E
1536519859.32,31408,19.13,74514.3,0.01,-22.77,-22.77,0,*72
1536519860.53,31409,19.13,74512.5,0.05,-22.63,-22.73,0,*76
1536519861.74,31410,19.13,74512.5,0.05,-22.47,-22.63,0,*79
1536519862.99,31411,19.13,74512.3,0.05,-22.77,-22.77,0,*7E
1536519864.2,31412,19.13,74514.0,0.05,-22.63,-22.77,0,*78
1536519865.39,31413,19.13,74508.5,0.01,-22.97,-23.13,0,*75
1536519866.58,31414,19.13,74512.5,0.01,-23.09,-23.09,0,*7F
1536519867.8,31415,19.13,74514.0,0.05,-22.93,-23.03,0,*72
1536519869.01,31416,19.13,74514.8,0.05,-22.41,-22.47,0,*7F
1536519870.22,31417,19.13,74512.0,0.05,-22.63,-22.77,0,*7D
1536519871.44,31418,19.13,74514.8,0.05,-22.47,-22.63,0,*71
1536519872.66,31419,19.13,74512.5,0.05,-22.27,-22.47,0,*70
1536519873.85,31420,19.13,74514.0,0.05,-22.41,-22.63,0,*7C
1536519875.03,31421,19.13,74510.5,0.05,-22.63,-22.63,0,*7D
1536519876.25,31422,19.13,74510.3,0.05,-22.47,-22.63,0,*78
1536519877.43,31423,19.13,74512.3,0.05,-22.41,-22.57,0,*78
1536519878.61,31424,19.13,74514.8,0.05,-22.27,-22.41,0,*78
1536519879.83,31425,19.13,74514.0,0.05,-22.31,-22.57,0,*79
1536519881.07,31426,19.13,74512.3,0.01,-22.77,-22.77,0,*7E
1536519882.28,31427,19.13,74512.8,0.05,-22.73,-22.87,0,*70
1536519883.47,31428,19.13,74512.0,0.01,-22.83,-22.93,0,*71
1536519884.65,31429,19.13,74514.0,0.05,-22.63,-22.63,0,*75
1536519885.87,31430,19.13,74514.8,0.05,-22.41,-22.47,0,*7B
1536519887.05,31431,19.13,74514.3,0.05,-22.41,-22.57,0,*7B
1536519888.24,31432,19.13,74514.8,0.05,-22.41,-22.57,0,*78
1536519889.45,31433,19.13,74514.3,0.07,-22.41,-22.53,0,*7F
1536519890.66,31434,19.13,74514.8,0.07,-22.37,-22.41,0,*7A
1536519891.87,31435,19.13,74514.0,0.07,-22.41,-22.41,0,*7A
1536519893.09,31436,19.13,74512.8,0.07,-22.57,-22.67,0,*7A
1536519894.31,31437,19.13,74514.3,0.07,-22.41,-22.57,0,*7F
1536519895.53,31438,19.13,74512.8,0.07,-22.57,-22.67,0,*74
1536519896.75,31439,19.13,74514.0,0.07,-22.57,-22.67,0,*75
1536519897.96,31440,19.13,74512.8,0.09,-22.67,-22.73,0,*73
1536519899.17,31441,19.13,74514.3,0.07,-22.67,-22.83,0,*73
1536519900.41,31442,19.13,74514.5,0.07,-22.67,-22.73,0,*7F
1536519901.64,31443,19.13,74516.3,0.07,-22.67,-22.73,0,*7E
1536519902.83,31444,19.13,74512.0,0.09,-22.57,-22.83,0,*7B
1536519904.05,31445,19.13,74514.3,0.07,-22.83,-22.87,0,*79
1536519905.26,31446,19.13,74514.0,0.07,-22.83,-22.87,0,*7A
1536519906.51,31447,19.13,74510.0,0.07,-22.97,-23.03,0,*73
1536519907.73,31448,19.13,74512.3,0.05,-22.77,-22.93,0,*78
1536519908.94,31449,19.13,74512.5,0.07,-22.67,-22.83,0,*7B
1536519910.18,31450,19.13,74514.3,0.07,-22.67,-22.73,0,*7C
1536519911.37,31451,19.13,74512.5,0.05,-22.57,-22.63,0,*7D
1536519912.59,31452,19.13,74512.8,0.05,-22.47,-22.57,0,*78
1536519913.82,31453,19.13,74512.0,0.05,-22.73,-22.77,0,*7C
1536519915.05,31454,19.13,74514.3,0.07,-22.57,-22.57,0,*7D
1536519916.23,31455,19.13,74512.5,0.09,-22.41,-22.53,0,*71
1536519917.44,31456,19.13,74514.3,0.07,-22.11,-22.37,0,*7B
1536519918.68,31457,19.13,74516.5,0.07,-22.21,-22.37,0,*79
1536519919.88,31458,19.13,74516.8,0.09,-22.57,-22.57,0,*7F
1536519921.06,31459,19.13,74514.8,0.09,-22.41,-22.53,0,*7D
1536519922.27,31460,19.13,74510.8,0.07,-22.41,-22.57,0,*7D
1536519923.49,31461,19.13,74514.0,0.07,-22.67,-22.67,0,*7B
1536519924.67,31462,19.13,74514.0,0.09,-22.83,-22.87,0,*72
1536519925.88,31463,19.13,74510.0,0.09,-22.73,-22.97,0,*7D
1536519927.07,31464,19.13,74512.3,0.09,-22.83,-22.97,0,*75
1536519928.29,31465,19.13,74512.3,0.07,-22.83,-22.87,0,*7B
1536519929.5,31466,19.13,74514.0,0.07,-22.67,-22.57,0,*7F
1536519930.74,31467,19.13,74512.3,0.07,-22.73,-22.87,0,*76
1536519931.96,31468,19.13,74512.3,0.07,-22.67,-22.83,0,*78
1536519933.2,31469,19.13,74514.8,0.07,-22.97,-23.03,0,*7F
1536519934.39,31470,19.13,74514.8,0.09,-22.87,-22.97,0,*74
1536519935.6,31471,19.13,74514.3,0.09,-22.57,-22.73,0,*72
1536519936.81,31472,19.13,74514.3,0.09,-22.67,-22.73,0,*72
1536519937.99,31473,19.13,74512.8,0.09,-22.67,-22.67,0,*76
1536519939.2,31474,19.13,74514.0,0.09,-22.57,-22.73,0,*77
1536519940.39,31475,19.13,74516.5,0.09,-22.57,-22.67,0,*73
1536519941.58,31476,19.13,74514.5,0.09,-22.57,-22.67,0,*70
1536519942.77,31477,19.13,74512.8,0.09,-22.57,-22.67,0,*71
1536519943.96,31478,19.13,74516.0,0.09,-22.41,-22.57,0,*7A
1536519945.16,31479,19.13,74514.3,0.09,-22.73,-22.83,0,*73
1536519946.38,31480,19.06,74512.0,0.07,-22.87,-22.97,0,*75
1536519947.57,31481,19.13,74514.3,0.09,-22.97,-22.87,0,*7A
1536519948.78,31482,19.13,74516.3,0.07,-22.83,-22.83,0,*76
1536519949.99,31483,19.13,74512.3,0.09,-22.67,-22.73,0,*7C
1536519951.2,31484,19.13,74512.5,0.09,-22.57,-22.73,0,*78
1536519952.39,31485,19.13,74514.5,0.09,-22.67,-22.83,0,*75
1536519953.57,31486,19.06,74510.8,0.09,-22.87,-22.97,0,*7D
1536519954.81,31487,19.13,74514.8,0.07,-22.87,-23.03,0,*7E
1536519956.03,31488,19.13,74514.8,0.07,-22.87,-22.97,0,*7D
1536519957.24,31489,19.13,74514.3,0.07,-22.87,-22.97,0,*7C
1536519958.44,31490,19.13,74514.3,0.09,-22.97,-23.09,0,*7D
1536519959.64,31491,19.06,74510.5,0.09,-22.87,-23.03,0,*77
1536519960.83,31492,19.13,74514.3,0.09,-22.83,-22.97,0,*7C
1536519962.07,31493,19.13,74510.5,0.07,-22.87,-23.03,0,*7B
1536519963.29,31494,19.13,74512.3,0.07,-22.87,-22.97,0,*70
1536519964.53,31495,19.13,74512.5,0.07,-22.83,-23.03,0,*79
1536519965.77,31496,19.13,74514.5,0.07,-22.97,-23.03,0,*7F
1536519966.98,31497,19.13,74514.0,0.09,-22.67,-22.73,0,*79
1536519968.2,31498,19.13,74512.8,0.07,-22.37,-22.53,0,*7F
1536519969.39,31499,19.13,74512.0,0.09,-22.41,-22.53,0,*71
1536519970.57,31500,19.13,74512.0,0.09,-22.83,-22.97,0,*76
1536519971.8,31501,19.13,74514.3,0.07,-22.97,-23.09,0,*7A
1536519972.99,31502,19.13,74516.5,0.09,-22.97,-23.09,0,*77
1536519974.17,31503,19.13,74512.8,0.09,-22.83,-22.87,0,*74
1536519975.36,31504,19.13,74514.5,0.09,-22.41,-22.57,0,*70
1536519976.57,31505,19.13,74514.5,0.07,-22.67,-22.83,0,*72
1536519977.81,31506,19.13,74514.5,0.07,-22.67,-22.73,0,*7E
1536519979.05,31507,19.13,74514.5,0.07,-22.57,-22.73,0,*7C
1536519980.24,31508,19.13,74514.8,0.09,-22.57,-22.67,0,*78
1536519981.45,31509,19.13,74514.0,0.09,-22.73,-22.83,0,*75
1536519982.66,31510,19.13,74512.0,0.07,-22.67,-22.67,0,*7C
1536519983.85,31511,19.13,74512.8,0.09,-22.67,-22.87,0,*7D
1536519985.06,31512,19.13,74514.0,0.09,-22.73,-22.87,0,*7B
1536519986.27,31513,19.13,74514.8,0.07,-22.87,-22.97,0,*7E
1536519987.51,31514,19.13,74512.0,0.07,-22.87,-23.03,0,*75
1536519988.7,31515,19.13,74514.0,0.09,-22.97,-23.09,0,*71
1536519989.95,31516,19.06,74512.5,0.07,-22.97,-23.03,0,*76
1536519991.21,31517,19.13,74512.0,0.07,-22.73,-22.73,0,*7B
1536519992.4,31518,19.13,74512.0,0.09,-22.57,-22.67,0,*79
1536519993.61,31519,19.06,74512.0,0.09,-22.73,-22.83,0,*74
1536519994.79,31520,19.13,74514.3,0.09,-22.67,-22.83,0,*7B
1536519995.98,31521,19.13,74512.8,0.09,-22.67,-22.83,0,*7A
1536519997.18,31522,19.13,74512.0,0.09,-22.87,-23.03,0,*7E
1536519998.4,31523,19.13,74512.5,0.07,-22.87,-22.97,0,*7D
1536519999.61,31524,19.13,74514.0,0.09,-22.83,-22.73,0,*7A
1536520000.8,31525,19.13,74514.5,0.09,-22.83,-22.97,0,*71
1536520001.99,31526,19.13,74516.0,0.09,-22.97,-23.09,0,*71
1536520003.2,31527,19.13,74514.3,0.09,-22.87,-23.03,0,*7B
1536520004.44,31528,19.06,74514.0,0.07,-22.83,-23.03,0,*7E
1536520005.65,31529,19.13,74512.3,0.07,-22.67,-22.83,0,*7C
1536520006.84,31530,19.13,74514.5,0.09,-22.41,-22.53,0,*73
1536520008.02,31531,19.06,74514.5,0.09,-22.41,-22.53,0,*72
1536520009.21,31532,19.13,74518.5,0.09,-22.37,-22.41,0,*73
1536520010.4,31533,19.13,74516.0,0.09,-22.53,-22.53,0,*73
1536520011.58,31534,19.13,74514.5,0.09,-22.41,-22.53,0,*77
1536520012.77,31535,19.13,74512.3,0.09,-22.37,-22.57,0,*73
1536520013.96,31536,19.13,74516.8,0.09,-22.37,-22.53,0,*74
1536520015.19,31537,19.13,74514.5,0.09,-22.73,-22.73,0,*77
1536520016.4,31538,19.13,74516.0,0.09,-22.73,-22.83,0,*77
1536520017.58,31539,19.06,74512.8,0.09,-22.83,-22.87,0,*7D
1536520018.77,31540,19.06,74512.3,0.09,-22.67,-22.83,0,*7D
1536520019.95,31541,19.13,74516.0,0.09,-22.83,-22.97,0,*73
1536520021.16,31542,19.13,74516.0,0.09,-22.73,-22.87,0,*7E
1536520022.38,31543,19.13,74518.3,0.07,-22.67,-22.83,0,*70
1536520023.59,31544,19.13,74512.8,0.11,-22.67,-22.83,0,*40
1536520024.81,31545,19.13,74514.0,0.11,-22.83,-22.83,0,*4B
1536520026.02,31546,19.13,74512.5,0.11,-22.63,-22.67,0,*4C
1536520027.24,31547,19.06,74514.8,0.11,-22.53,-22.63,0,*4A
1536520028.49,31548,19.06,74512.0,0.11,-22.47,-22.63,0,*40
1536520029.71,31549,19.06,74514.8,0.11,-22.37,-22.53,0,*45
1536520030.95,31550,19.13,74514.5,0.11,-22.47,-22.53,0,*4A
1536520032.17,31551,19.13,74516.3,0.11,-22.67,-22.67,0,*4E
1536520033.39,31552,19.13,74512.3,0.11,-22.53,-22.67,0,*4A
1536520034.63,31553,19.06,74512.8,0.11,-22.67,-22.77,0,*4D
1536520035.87,31554,19.13,74512.3,0.11,-22.67,-22.77,0,*4A
1536520037.09,31555,19.13,74516.3,0.13,-22.63,-22.67,0,*4C
1536520038.33,31556,19.13,74516.8,0.11,-22.67,-22.77,0,*48
1536520039.58,31557,19.06,74512.5,0.13,-22.77,-22.83,0,*41
1536520040.8,31558,19.13,74512.5,0.11,-22.53,-22.67,0,*40
1536520042.04,31559,19.13,74516.5,0.11,-22.47,-22.53,0,*43
1536520043.29,31560,19.06,74512.5,0.11,-22.47,-22.53,0,*49
1536520044.53,31561,19.06,74512.8,0.11,-22.21,-22.37,0,*4A
1536520045.77,31562,19.06,74514.0,0.11,-22.17,-22.37,0,*4C
1536520047.02,31563,19.13,74516.0,0.13,-22.47,-22.63,0,*4B
1536520048.28,31564,19.13,74516.0,0.13,-22.37,-22.47,0,*4D
1536520049.53,31565,19.13,74518.5,0.13,-22.47,-22.63,0,*4D
1536520050.81,31566,19.13,74516.3,0.13,-22.31,-22.47,0,*49
1536520052.06,31567,19.13,74516.5,0.13,-22.47,-22.63,0,*4F
1536520053.29,31568,19.06,74512.0,0.13,-22.53,-22.63,0,*45
1536520054.54,31569,19.13,74516.0,0.13,-22.47,-22.53,0,*42
1536520055.77,31570,19.13,74514.5,0.13,-22.37,-22.63,0,*4E
1536520057.02,31571,19.06,74512.8,0.13,-22.47,-22.53,0,*4B
1536520058.27,31572,19.13,74514.8,0.13,-22.63,-22.77,0,*48
1536520059.52,31573,19.13,74518.0,0.13,-22.77,-22.83,0,*47
1536520060.77,31574,19.06,74512.8,0.13,-22.77,-22.83,0,*40
1536520062.02,31575,19.13,74514.3,0.13,-22.77,-22.83,0,*41
1536520063.24,31576,19.13,74518.0,0.13,-22.67,-22.83,0,*43
1536520064.47,31577,19.13,74514.3,0.13,-22.93,-22.93,0,*48
1536520065.72,31578,19.13,74514.8,0.13,-22.67,-22.77,0,*46
1536520066.97,31579,19.06,74512.8,0.13,-22.53,-22.77,0,*40
1536520068.19,31580,19.06,74516.8,0.13,-22.63,-22.67,0,*44
1536520069.41,31581,19.13,74516.8,0.11,-22.53,-22.63,0,*40
1536520070.63,31582,19.13,74516.8,0.11,-22.37,-22.63,0,*41
1536520071.88,31583,19.06,74516.5,0.13,-22.47,-22.53,0,*46
1536520073.14,31584,19.06,74514.8,0.13,-22.47,-22.53,0,*41
1536520074.36,31585,19.13,74516.8,0.13,-22.53,-22.67,0,*42
1536520075.58,31586,19.06,74512.8,0.11,-22.53,-22.67,0,*43
1536520076.8,31587,19.13,74516.8,0.13,-22.63,-22.67,0,*43
1536520078.05,31588,19.13,74514.8,0.11,-22.47,-22.63,0,*4C
1536520079.33,31589,19.06,74514.0,0.13,-22.31,-22.47,0,*48
1536520080.55,31590,19.06,74514.5,0.11,-22.53,-22.53,0,*43
1536520081.78,31591,19.13,74514.8,0.13,-22.53,-22.63,0,*43
1536520083.01,31592,19.06,74514.8,0.13,-22.53,-22.63,0,*40
1536520084.26,31593,19.06,74514.8,0.13,-22.47,-22.53,0,*47
1536520085.49,31594,19.13,74516.8,0.13,-22.53,-22.53,0,*45
1536520086.7,31595,19.06,74514.5,0.13,-22.63,-22.67,0,*40
1536520087.95,31596,19.06,74514.5,0.13,-22.63,-22.77,0,*42
1536520089.18,31597,19.13,74516.3,0.15,-22.47,-22.63,0,*46
1536520090.4,31598,19.06,74512.5,0.13,-22.63,-22.63,0,*49
1536520091.62,31599,19.06,74512.8,0.11,-22.53,-22.63,0,*49
1536520092.87,31600,19.06,74514.0,0.13,-22.63,-22.77,0,*4E